C31FR-13 Weather Reports


Display with metric or nautical units.
time (UTC)temp
F
wind
direction
speed
MPH
gust
MPH
rain 1hr
in
rain 24hr
in
rain mn
in
humidity
%
barometer
mb
20260504005606 54 0.0 0.0 0.00 0.00 0.00 89 1014.3
20260504004603 54 0.0 0.0 0.00 0.00 0.00 88 1014.3
20260504004103 54 0.0 0.0 0.00 0.00 0.00 87 1014.4
20260504003602 53 0.0 0.0 0.00 0.00 0.00 88 1014.5
20260504003102 54 0.0 0.0 0.00 0.00 0.00 92 1014.6
20260504002603 54 0.0 0.0 0.00 0.00 0.00 91 1014.6
20260504002103 54 0.0 0.0 0.00 0.00 0.00 90 1014.7
20260504001602 54 0.0 0.0 0.00 0.00 0.00 88 1014.7
20260504001102 55 0.0 0.0 0.00 0.00 0.00 91 1014.6
20260503235602 54 0.0 0.0 0.00 0.00 0.00 92 1014.6
20260503235102 54 0.0 0.0 0.00 0.00 0.00 93 1014.6
20260503234603 54 0.0 0.0 0.00 0.00 0.00 93 1014.6
20260503234102 54 0.0 0.0 0.00 0.00 0.00 89 1014.7
20260503233602 54 0.0 0.0 0.00 0.00 0.00 88 1014.8
20260503233102 53 0.0 0.0 0.00 0.00 0.00 90 1014.8
20260503232602 54 0.0 0.0 0.00 0.00 0.00 90 1014.8
20260503232102 54 0.0 0.0 0.00 0.00 0.00 90 1014.8
20260503231602 54 0.0 0.0 0.00 0.00 0.00 87 1014.8
20260503231103 54 0.0 0.0 0.00 0.00 0.00 87 1014.8
20260503230602 54 0.0 0.0 0.00 0.00 0.00 89 1014.8
20260503225603 54 0.0 0.0 0.00 0.00 0.00 89 1014.9
20260503225102 55 0.0 0.0 0.00 0.00 0.00 88 1014.8
20260503224603 55 0.0 0.0 0.00 0.00 0.00 88 1014.9
20260503224103 55 0.0 0.0 0.00 0.00 0.00 88 1014.9
20260503223602 54 0.0 0.0 0.00 0.00 0.00 88 1015.0
20260503223102 55 0.0 0.0 0.00 0.00 0.00 87 1014.9
20260503222603 55 0.0 0.0 0.00 0.00 0.00 85 1015.0
20260503222103 54 0.0 0.0 0.00 0.00 0.00 87 1015.0
20260503221602 55 0.0 0.0 0.00 0.00 0.00 87 1015.0
20260503220602 54 0.0 0.0 0.00 0.00 0.00 87 1015.0
20260503220103 54 0.0 0.0 0.00 0.00 0.00 91 1015.0
20260503215602 54 0.0 0.0 0.00 0.00 0.00 91 1015.0
20260503215102 54 0.0 0.0 0.00 0.00 0.00 93 1015.1
20260503214602 54 0.0 0.0 0.00 0.00 0.00 91 1015.1
20260503214103 54 0.0 0.0 0.00 0.00 0.00 88 1015.2
20260503213602 54 0.0 0.0 0.00 0.00 0.00 91 1015.2
20260503213102 55 0.0 0.0 0.00 0.00 0.00 87 1015.2
20260503212103 54 0.0 0.0 0.00 0.00 0.00 90 1015.1
20260503211602 55 0.0 0.0 0.00 0.00 0.00 88 1015.1
20260503211102 54 0.0 0.0 0.00 0.00 0.00 87 1015.1
20260503210824 54 0.0 0.0 0.00 0.00 0.00 90 1015.1
20260503205602 54 0.0 0.0 0.00 0.00 0.00 89 1015.0
20260503205103 55 0.0 0.0 0.00 0.00 0.00 88 1015.0
20260503204602 55 0.0 0.0 0.00 0.00 0.00 85 1014.9
20260503204101 54 0.0 0.0 0.00 0.00 0.00 81 1014.9
20260503203603 53 0.0 0.0 0.00 0.00 0.00 82 1014.9
20260503203104 53 0.0 0.0 0.00 0.00 0.00 83 1014.8
20260503202102 53 0.0 0.0 0.00 0.00 0.00 80 1014.8
20260503201603 54 0.0 0.0 0.00 0.00 0.00 77 1014.7
20260503201102 54 0.0 0.0 0.00 0.00 0.00 79 1014.7
20260503195603 54 0.0 0.0 0.00 0.00 0.00 78 1014.6
20260503195102 54 0.0 0.0 0.00 0.00 0.00 76 1014.5
20260503194602 54 0.0 0.0 0.00 0.00 0.00 80 1014.4
20260503194102 54 0.0 0.0 0.00 0.00 0.00 82 1014.4
20260503193603 54 0.0 0.0 0.00 0.00 0.00 85 1014.2
20260503193102 54 0.0 0.0 0.00 0.00 0.00 85 1014.0
20260503192603 54 0.0 0.0 0.00 0.00 0.00 85 1013.9
20260503192102 54 0.0 0.0 0.00 0.00 0.00 87 1013.9
20260503191602 55 0.0 0.0 0.00 0.00 0.00 86 1013.8
20260503191102 55 0.0 0.0 0.00 0.00 0.00 85 1013.6
20260503190604 55 0.0 0.0 0.00 0.00 0.00 85 1013.4
20260503185602 55 0.0 0.0 0.00 0.00 0.00 86 1013.1
20260503185103 56 0.0 0.0 0.00 0.00 0.00 87 1013.0
20260503184603 56 0.0 0.0 0.00 0.00 0.00 86 1013.0
20260503184102 56 0.0 0.0 0.00 0.00 0.00 85 1012.9
20260503183602 56 0.0 0.0 0.00 0.00 0.00 87 1012.9
20260503183103 56 0.0 0.0 0.00 0.00 0.00 88 1012.9
20260503182602 56 0.0 0.0 0.00 0.00 0.00 86 1013.0
20260503182102 57 0.0 0.0 0.00 0.00 0.00 86 1013.0
20260503181602 56 0.0 0.0 0.00 0.00 0.00 87 1013.0
20260503181102 56 0.0 0.0 0.00 0.00 0.00 87 1013.1
20260503180602 56 0.0 0.0 0.00 0.00 0.00 85 1013.1
20260503175103 57 0.0 0.0 0.00 0.00 0.00 89 1013.2
20260503174602 58 0.0 0.0 0.00 0.00 0.00 84 1013.2
20260503174103 56 0.0 0.0 0.00 0.00 0.00 91 1013.3
20260503173602 56 0.0 0.0 0.00 0.00 0.00 91 1013.3
20260503173103 56 0.0 0.0 0.00 0.00 0.00 91 1013.3
20260503172603 56 0.0 0.0 0.00 0.00 0.00 91 1013.3
20260503172102 56 0.0 0.0 0.00 0.00 0.00 91 1013.4
20260503171602 56 0.0 0.0 0.00 0.00 0.00 89 1013.3
20260503171103 56 0.0 0.0 0.00 0.00 0.00 87 1013.3
20260503170602 56 0.0 0.0 0.00 0.00 0.00 86 1013.4
20260503150602 59 0.0 0.0 0.00 0.00 0.00 74 1013.2
20260503131102 63 0.0 0.0 0.00 0.00 0.00 55 1014.0
20260503130603 63 0.0 0.0 0.00 0.00 0.00 54 1013.9
20260503110602 60 0.0 0.0 0.00 0.00 0.00 61 1016.0
20260503081603 55 0.0 0.0 0.00 0.00 0.00 88 1017.3
20260503081102 54 0.0 0.0 0.00 0.00 0.00 87 1017.4
20260503080602 54 0.0 0.0 0.00 0.00 0.00 87 1017.4
20260503072602 53 0.0 0.0 0.00 0.00 0.00 96 1017.9
20260503072102 53 0.0 0.0 0.00 0.00 0.00 93 1017.9
20260503071104 52 0.0 0.0 0.00 0.00 0.00 95 1017.8
20260503070602 52 0.0 0.0 0.00 0.00 0.00 96 1017.8
20260503070103 52 0.0 0.0 0.00 0.00 0.00 97 1017.9
20260503054602 52 0.0 0.0 0.00 0.00 0.00 98 1017.5
20260503054102 52 0.0 0.0 0.00 0.00 0.00 99 1017.5
20260503052603 52 0.0 0.0 0.00 0.00 0.00 99 1017.3
20260503052102 53 0.0 0.0 0.00 0.00 0.00 99 1017.2
20260503051602 53 0.0 0.0 0.00 0.00 0.00 99 1017.2
20260503051102 53 0.0 0.0 0.00 0.00 0.00 97 1017.2
20260503050602 53 0.0 0.0 0.00 0.00 0.00 98 1017.3
20260503042602 52 0.0 0.0 0.00 0.00 0.00 98 1017.3
20260503042102 52 0.0 0.0 0.00 0.00 0.00 98 1017.2
20260503041602 52 0.0 0.0 0.00 0.00 0.00 97 1017.2
20260503041102 53 0.0 0.0 0.00 0.00 0.00 96 1017.1
20260503040602 52 0.0 0.0 0.00 0.00 0.00 95 1017.2
20260503033602 51 0.0 0.0 0.00 0.00 0.00 98 1017.5
20260503010603 52 0.0 0.0 0.00 0.00 0.00 99 1017.8